none
Errore 646 di Windows Update Office Student 2007 RRS feed

  • Domanda

  • Da qualche tempo non riesco più a fare gli aggiornamenti di Office in quanto mi da sempre questo tipo di errore in oggetto.Vi allego, come mi sembra abbiano fatto altri, il file WindowsUpdate.log sperando vi sia di aiuto. Ringrazio anticipatamente.. Gianni 

    2010-05-18 15:24:43:893 1184 36c AU Getting featured update notifications.  fIncludeDismissed = true
    2010-05-18 15:24:43:893 1184 36c AU No featured updates available.
    2010-05-18 15:24:46:779 1184 36c AU Getting featured update notifications.  fIncludeDismissed = true
    2010-05-18 15:24:46:779 1184 36c AU No featured updates available.
    2010-05-18 15:25:05:858 1184 1240 AU AU received approval from Ux for 1 updates
    2010-05-18 15:25:05:858 1184 1240 AU AU setting pending client directive to 'Progress Ux'
    2010-05-18 15:25:05:904 1184 36c AU BeginInteractiveInstall invoked for Download
    2010-05-18 15:25:05:904 1184 36c AU Auto-approved 0 update(s) for download (for Ux)
    2010-05-18 15:25:05:904 1184 36c AU UpdateDownloadProperties: 0 download(s) are still in progress.
    2010-05-18 15:25:05:904 1184 36c AU #############
    2010-05-18 15:25:05:904 1184 36c AU ## START ##  AU: Download updates
    2010-05-18 15:25:05:904 1184 36c AU #########
    2010-05-18 15:25:05:904 1184 36c AU   # Found no download approved updates.
    2010-05-18 15:25:05:904 1184 36c AU #########
    2010-05-18 15:25:05:904 1184 36c AU ##  END  ##  AU: Download updates
    2010-05-18 15:25:05:904 1184 36c AU #############
    2010-05-18 15:25:05:904 1184 36c AU All updates already downloaded, setting percent complete to 100
    2010-05-18 15:25:05:904 1184 36c AU BeginInteractiveInstall invoked for Install
    2010-05-18 15:25:05:904 1184 36c AU Auto-approving update for install, updateId = {786A447D-2FCE-40FD-8320-26324F5524FF}.100, ForUx=1, IsOwnerUx=1, HasDeadline=0, IsMinor=0
    2010-05-18 15:25:05:904 1184 36c AU Auto-approved 1 update(s) for install (for Ux), installType=1
    2010-05-18 15:25:05:904 1184 36c AU #############
    2010-05-18 15:25:05:904 1184 36c AU ## START ##  AU: Install updates
    2010-05-18 15:25:05:904 1184 36c AU #########
    2010-05-18 15:25:05:904 1184 36c AU   # Initiating manual install
    2010-05-18 15:25:05:904 1184 36c AU   # Approved updates = 1
    2010-05-18 15:25:05:904 1184 36c AU <<## SUBMITTED ## AU: Install updates / installing updates [CallId = {8E91BA98-6A4A-4C16-A438-EDA31AE253CB}]
    2010-05-18 15:25:05:904 1184 d5c Agent *************
    2010-05-18 15:25:05:904 1184 d5c Agent ** START **  Agent: Installing updates [CallerId = AutomaticUpdates]
    2010-05-18 15:25:05:904 1184 d5c Agent *********
    2010-05-18 15:25:05:904 1184 d5c Agent   * Updates to install = 1
    2010-05-18 15:25:06:185 1184 36c AU Getting featured update notifications.  fIncludeDismissed = true
    2010-05-18 15:25:06:185 1184 36c AU No featured updates available.
    2010-05-18 15:25:06:263 1184 d5c Agent   *   Title = Aggiornamento della protezione per Excel 2007 (KB934670)
    2010-05-18 15:25:06:263 1184 d5c Agent   *   UpdateId = {786A447D-2FCE-40FD-8320-26324F5524FF}.100
    2010-05-18 15:25:06:263 1184 d5c Agent   *     Bundles 1 updates:
    2010-05-18 15:25:06:263 1184 d5c Agent   *       {30310F0A-BE62-49CC-9230-77FD165D8C80}.100
    2010-05-18 15:25:06:700 1184 36c AU All updates already downloaded, setting percent complete to 100
    2010-05-18 15:25:07:714 1184 36c AU All updates already downloaded, setting percent complete to 100
    2010-05-18 15:25:07:917 1184 36c AU All updates already downloaded, setting percent complete to 100
    2010-05-18 15:25:09:929 1184 36c AU All updates already downloaded, setting percent complete to 100
    2010-05-18 15:25:11:910 1184 36c AU Getting featured update notifications.  fIncludeDismissed = true
    2010-05-18 15:25:11:910 1184 36c AU No featured updates available.
    2010-05-18 15:25:12:316 1184 1240 AU All updates already downloaded, setting percent complete to 100
    2010-05-18 15:25:12:363 1184 1240 AU All updates already downloaded, setting percent complete to 100
    2010-05-18 15:25:13:377 1184 1240 AU All updates already downloaded, setting percent complete to 100
    2010-05-18 15:25:13:954 1184 1e4 AU All updates already downloaded, setting percent complete to 100
    2010-05-18 15:25:14:391 1184 1e4 AU All updates already downloaded, setting percent complete to 100
    2010-05-18 15:25:15:405 1184 1240 AU All updates already downloaded, setting percent complete to 100
    2010-05-18 15:25:15:966 1184 1240 AU All updates already downloaded, setting percent complete to 100
    2010-05-18 15:25:16:419 1184 1240 AU All updates already downloaded, setting percent complete to 100
    2010-05-18 15:25:17:604 1184 1240 AU All updates already downloaded, setting percent complete to 100
    2010-05-18 15:25:17:979 1184 1240 AU All updates already downloaded, setting percent complete to 100
    2010-05-18 15:25:18:462 1184 1240 AU All updates already downloaded, setting percent complete to 100
    2010-05-18 15:25:18:587 1184 d5c DnldMgr Preparing update for install, updateId = {30310F0A-BE62-49CC-9230-77FD165D8C80}.100.
    2010-05-18 15:25:18:587 6076 1348 Misc ===========  Logging initialized (build: 7.4.7600.226, tz: +0200)  ===========
    2010-05-18 15:25:18:587 6076 1348 Misc   = Process: C:\Windows\system32\wuauclt.exe
    2010-05-18 15:25:18:587 6076 1348 Misc   = Module: C:\Windows\system32\wuaueng.dll
    2010-05-18 15:25:18:587 6076 1348 Handler :::::::::::::
    2010-05-18 15:25:18:587 6076 1348 Handler :: START ::  Handler: MSI Install
    2010-05-18 15:25:18:587 6076 1348 Handler :::::::::
    2010-05-18 15:25:18:587 6076 1348 Handler   : Updates to install = 1
    2010-05-18 15:25:18:603 6076 1348 Handler Extracting MSP file stored in CAB excel.cab
    2010-05-18 15:25:19:461 1184 1240 AU All updates already downloaded, setting percent complete to 100
    2010-05-18 15:25:19:991 6076 1348 Handler MSP update {00000000-0000-0000-0000-000000000000}.0 using full-file patch
    2010-05-18 15:25:19:991 6076 1348 Handler   : Batch installing 1 updates
    2010-05-18 15:25:19:991 1184 1240 AU All updates already downloaded, setting percent complete to 100
    2010-05-18 15:25:20:085 6076 1348 Handler List of MSPs in transaction:
    2010-05-18 15:25:20:085 6076 1348 Handler   C:\Windows\SoftwareDistribution\Download\8a3e1246e392acb8ac27b035aedeab24\img\excel.MSP
    2010-05-18 15:25:20:085 6076 1348 Handler MSP final command line: DISABLESRCPROMPT=1 LOCALCACHESRCRES=0 NOLOCALCACHEROLLBACK=1 REBOOT=REALLYSUPPRESS MSIRESTARTMANAGERCONTROL=Disable
    2010-05-18 15:25:20:475 1184 1240 AU All updates already downloaded, setting percent complete to 100
    2010-05-18 15:25:21:567 1184 158c AU All updates already downloaded, setting percent complete to 100
    2010-05-18 15:25:22:004 1184 158c AU All updates already downloaded, setting percent complete to 100
    2010-05-18 15:25:22:581 1184 158c AU All updates already downloaded, setting percent complete to 100
    2010-05-18 15:25:23:595 1184 158c AU All updates already downloaded, setting percent complete to 100
    2010-05-18 15:25:24:016 1184 158c AU All updates already downloaded, setting percent complete to 100
    2010-05-18 15:25:24:609 1184 158c AU All updates already downloaded, setting percent complete to 100
    2010-05-18 15:25:25:623 1184 158c AU All updates already downloaded, setting percent complete to 100
    2010-05-18 15:25:26:028 1184 158c AU All updates already downloaded, setting percent complete to 100
    2010-05-18 15:25:26:637 1184 158c AU All updates already downloaded, setting percent complete to 100
    2010-05-18 15:25:27:651 1184 158c AU All updates already downloaded, setting percent complete to 100
    2010-05-18 15:25:28:041 1184 1240 AU All updates already downloaded, setting percent complete to 100
    2010-05-18 15:25:28:665 1184 1240 AU All updates already downloaded, setting percent complete to 100
    2010-05-18 15:25:29:679 1184 1240 AU All updates already downloaded, setting percent complete to 100
    2010-05-18 15:25:30:053 1184 1240 AU All updates already downloaded, setting percent complete to 100
    2010-05-18 15:25:30:693 1184 1240 AU All updates already downloaded, setting percent complete to 100
    2010-05-18 15:25:31:707 1184 1240 AU All updates already downloaded, setting percent complete to 100
    2010-05-18 15:25:32:066 1184 1240 AU All updates already downloaded, setting percent complete to 100
    2010-05-18 15:25:32:721 1184 1240 AU All updates already downloaded, setting percent complete to 100
    2010-05-18 15:25:33:735 1184 1240 AU All updates already downloaded, setting percent complete to 100
    2010-05-18 15:25:34:078 1184 1240 AU All updates already downloaded, setting percent complete to 100
    2010-05-18 15:25:34:749 1184 1240 AU All updates already downloaded, setting percent complete to 100
    2010-05-18 15:25:35:763 1184 1240 AU All updates already downloaded, setting percent complete to 100
    2010-05-18 15:25:36:090 1184 1240 AU All updates already downloaded, setting percent complete to 100
    2010-05-18 15:25:36:777 1184 1240 AU All updates already downloaded, setting percent complete to 100
    2010-05-18 15:25:37:791 1184 1240 AU All updates already downloaded, setting percent complete to 100
    2010-05-18 15:25:38:103 1184 1240 AU All updates already downloaded, setting percent complete to 100
    2010-05-18 15:25:38:805 1184 1240 AU All updates already downloaded, setting percent complete to 100
    2010-05-18 15:25:39:819 1184 1240 AU All updates already downloaded, setting percent complete to 100
    2010-05-18 15:25:40:115 1184 1240 AU All updates already downloaded, setting percent complete to 100
    2010-05-18 15:25:40:833 1184 1240 AU All updates already downloaded, setting percent complete to 100
    2010-05-18 15:25:41:847 1184 1240 AU All updates already downloaded, setting percent complete to 100
    2010-05-18 15:25:42:128 1184 1240 AU All updates already downloaded, setting percent complete to 100
    2010-05-18 15:25:42:861 1184 1240 AU All updates already downloaded, setting percent complete to 100
    2010-05-18 15:25:43:875 1184 1240 AU All updates already downloaded, setting percent complete to 100
    2010-05-18 15:25:44:140 1184 1240 AU All updates already downloaded, setting percent complete to 100
    2010-05-18 15:25:44:889 1184 1240 AU All updates already downloaded, setting percent complete to 100
    2010-05-18 15:25:45:903 1184 1240 AU All updates already downloaded, setting percent complete to 100
    2010-05-18 15:25:46:152 1184 1240 AU All updates already downloaded, setting percent complete to 100
    2010-05-18 15:25:46:917 1184 1240 AU All updates already downloaded, setting percent complete to 100
    2010-05-18 15:25:47:931 1184 1240 AU All updates already downloaded, setting percent complete to 100
    2010-05-18 15:25:48:165 1184 1240 AU All updates already downloaded, setting percent complete to 100
    2010-05-18 15:25:48:945 1184 1240 AU All updates already downloaded, setting percent complete to 100
    2010-05-18 15:25:49:959 1184 1240 AU All updates already downloaded, setting percent complete to 100
    2010-05-18 15:25:50:177 1184 1240 AU All updates already downloaded, setting percent complete to 100
    2010-05-18 15:25:50:973 1184 1240 AU All updates already downloaded, setting percent complete to 100
    2010-05-18 15:25:51:987 1184 1240 AU All updates already downloaded, setting percent complete to 100
    2010-05-18 15:25:52:190 1184 1240 AU All updates already downloaded, setting percent complete to 100
    2010-05-18 15:25:53:001 1184 1240 AU All updates already downloaded, setting percent complete to 100
    2010-05-18 15:25:54:015 1184 1240 AU All updates already downloaded, setting percent complete to 100
    2010-05-18 15:25:54:202 1184 1240 AU All updates already downloaded, setting percent complete to 100
    2010-05-18 15:25:55:029 1184 1240 AU All updates already downloaded, setting percent complete to 100
    2010-05-18 15:25:56:043 1184 1240 AU All updates already downloaded, setting percent complete to 100
    2010-05-18 15:25:56:214 1184 1240 AU All updates already downloaded, setting percent complete to 100
    2010-05-18 15:25:57:057 1184 1240 AU All updates already downloaded, setting percent complete to 100
    2010-05-18 15:25:58:071 1184 1240 AU All updates already downloaded, setting percent complete to 100
    2010-05-18 15:25:58:227 1184 1240 AU All updates already downloaded, setting percent complete to 100
    2010-05-18 15:25:59:085 1184 1240 AU All updates already downloaded, setting percent complete to 100
    2010-05-18 15:26:00:099 1184 1240 AU All updates already downloaded, setting percent complete to 100
    2010-05-18 15:26:00:239 1184 1240 AU All updates already downloaded, setting percent complete to 100
    2010-05-18 15:26:01:113 1184 1240 AU All updates already downloaded, setting percent complete to 100
    2010-05-18 15:26:02:127 1184 1240 AU All updates already downloaded, setting percent complete to 100
    2010-05-18 15:26:02:252 1184 1240 AU All updates already downloaded, setting percent complete to 100
    2010-05-18 15:26:03:141 1184 1240 AU All updates already downloaded, setting percent complete to 100
    2010-05-18 15:26:04:155 1184 1240 AU All updates already downloaded, setting percent complete to 100
    2010-05-18 15:26:04:264 1184 1240 AU All updates already downloaded, setting percent complete to 100
    2010-05-18 15:26:05:169 1184 1240 AU All updates already downloaded, setting percent complete to 100
    2010-05-18 15:26:06:183 1184 1240 AU All updates already downloaded, setting percent complete to 100
    2010-05-18 15:26:06:276 1184 1240 AU All updates already downloaded, setting percent complete to 100
    2010-05-18 15:26:07:197 1184 1240 AU All updates already downloaded, setting percent complete to 100
    2010-05-18 15:26:08:211 1184 1240 AU All updates already downloaded, setting percent complete to 100
    2010-05-18 15:26:08:289 1184 1240 AU All updates already downloaded, setting percent complete to 100
    2010-05-18 15:26:09:225 1184 1240 AU All updates already downloaded, setting percent complete to 100
    2010-05-18 15:26:10:239 1184 1240 AU All updates already downloaded, setting percent complete to 100
    2010-05-18 15:26:10:301 1184 1240 AU All updates already downloaded, setting percent complete to 100
    2010-05-18 15:26:11:253 1184 1240 AU All updates already downloaded, setting percent complete to 100
    2010-05-18 15:26:12:267 1184 1240 AU All updates already downloaded, setting percent complete to 100
    2010-05-18 15:26:12:314 1184 1240 AU All updates already downloaded, setting percent complete to 100
    2010-05-18 15:26:13:156 6076 1348 Handler MSP Error List:
    2010-05-18 15:26:13:156 6076 1348 Handler 1: 1606 2: 0X0.E31C80P-1022PPDATA\
    2010-05-18 15:26:13:156 6076 1348 Handler 1: 1606 2: 0X0.E31C80P-1022PPDATA\
    2010-05-18 15:26:13:156 6076 1348 Handler   : MSI transaction completed. MSI: 0x80070643, Handler: 0x8024200b, Source: No, Reboot: 0
    2010-05-18 15:26:13:156 6076 1348 Handler   : WARNING: First failure for update {30310F0A-BE62-49CC-9230-77FD165D8C80}, transaction error = 0x8024200b, MSI result = 0x80070643, MSI action = CostFinalize
    2010-05-18 15:26:13:156 1184 1728 AU >>##  RESUMED  ## AU: Installing update [UpdateId = {786A447D-2FCE-40FD-8320-26324F5524FF}]
    2010-05-18 15:26:13:156 1184 1728 AU   # WARNING: Install failed, error = 0x80070643 / 0x00000646
    2010-05-18 15:26:13:156 6076 1348 Handler   : WARNING: Operation failed at update 0, Exit code = 0x8024200B
    2010-05-18 15:26:13:156 6076 1348 Handler :::::::::
    2010-05-18 15:26:13:156 6076 1348 Handler ::  END  ::  Handler: MSI Install
    2010-05-18 15:26:13:156 6076 1348 Handler :::::::::::::
    2010-05-18 15:26:13:281 1184 1240 AU All updates already downloaded, setting percent complete to 100
    2010-05-18 15:26:13:406 1184 d5c Agent *********
    2010-05-18 15:26:13:406 1184 d5c Agent **  END  **  Agent: Installing updates [CallerId = AutomaticUpdates]
    2010-05-18 15:26:13:406 1184 d5c Agent *************
    2010-05-18 15:26:13:406 1184 1728 AU Install call completed.
    2010-05-18 15:26:13:406 1184 1728 AU   # WARNING: Install call completed, reboot required = No, error = 0x00000000
    2010-05-18 15:26:13:406 1184 1728 AU #########
    2010-05-18 15:26:13:406 1184 1728 AU ##  END  ##  AU: Installing updates [CallId = {8E91BA98-6A4A-4C16-A438-EDA31AE253CB}]
    2010-05-18 15:26:13:406 1184 1728 AU #############
    2010-05-18 15:26:13:406 1184 1728 AU Install complete for all calls, reboot NOT needed
    2010-05-18 15:26:13:671 1184 1240 AU Getting featured update notifications.  fIncludeDismissed = true
    2010-05-18 15:26:13:671 1184 1240 AU No featured updates available.
    2010-05-18 15:26:14:108 1184 1240 AU All updates already downloaded, setting percent complete to 100
    2010-05-18 15:26:14:326 1184 1240 AU All updates already downloaded, setting percent complete to 100
    2010-05-18 15:26:14:326 1184 1240 AU No featured updates notifications to show
    2010-05-18 15:26:14:326 1184 1240 AU UpdateDownloadProperties: 0 download(s) are still in progress.
    2010-05-18 15:26:14:326 1184 1240 AU Triggering Offline detection (non-interactive)
    2010-05-18 15:26:14:326 1184 1240 AU AU setting pending client directive to 'Install Complete Ux'
    2010-05-18 15:26:14:326 1184 1240 AU Changing existing AU client directive from 'Progress Ux' to 'Install Complete Ux', session id = 0x1
    2010-05-18 15:26:14:326 1184 1240 AU AU setting pending client directive to 'Install Approval'
    2010-05-18 15:26:14:326 1184 1240 AU Changing existing AU client directive from 'Install Complete Ux' to 'Install Approval', session id = 0x1
    2010-05-18 15:26:14:373 1184 c80 AU #############
    2010-05-18 15:26:14:373 1184 c80 AU ## START ##  AU: Search for updates
    2010-05-18 15:26:14:373 1184 c80 AU #########
    2010-05-18 15:26:14:373 1184 c80 AU <<## SUBMITTED ## AU: Search for updates [CallId = {384FE0D6-1D79-4980-B1C7-E8B07C64070E}]
    2010-05-18 15:26:14:373 1184 b2c Agent *************
    2010-05-18 15:26:14:373 1184 b2c Agent ** START **  Agent: Finding updates [CallerId = AutomaticUpdates]
    2010-05-18 15:26:14:373 1184 b2c Agent *********
    2010-05-18 15:26:14:373 1184 b2c Agent   * Online = No; Ignore download priority = No
    2010-05-18 15:26:14:373 1184 b2c Agent   * Criteria = "IsInstalled=0 and DeploymentAction='Installation' or IsPresent=1 and DeploymentAction='Uninstallation' or IsInstalled=1 and DeploymentAction='Installation' and RebootRequired=1 or IsInstalled=0 and DeploymentAction='Uninstallation' and RebootRequired=1"
    2010-05-18 15:26:14:373 1184 b2c Agent   * ServiceID = {7971F918-A847-4430-9279-4A52D1EFE18D} Third party service
    2010-05-18 15:26:14:373 1184 b2c Agent   * Search Scope = {Machine}
    2010-05-18 15:26:32:594 1184 b2c Handler FATAL: UH: 0x80070490: EvaluateApplicability failed in CCbs::EvaluateApplicability
    2010-05-18 15:26:43:950 1184 b2c Agent   * Added update {E6F4B0B4-82B7-405D-A248-30B250D337C5}.100 to search result
    2010-05-18 15:26:43:950 1184 b2c Agent Update {8EA83167-CFA4-4866-8626-13196441D246}.100 is pruned out due to potential supersedence
    2010-05-18 15:26:43:950 1184 b2c Agent   * Added update {AD701117-5D76-4E8B-976B-03A02AADB897}.100 to search result
    2010-05-18 15:26:43:950 1184 b2c Agent   * Added update {B8B212BF-4CB0-4681-B1CC-28486988730B}.100 to search result
    2010-05-18 15:26:43:950 1184 b2c Agent   * Added update {777E1D3F-E2C6-431A-8E16-E2B290BF38B5}.100 to search result
    2010-05-18 15:26:43:950 1184 b2c Agent   * Added update {093E6060-C913-46D6-8AE7-E0854CBBE795}.100 to search result
    2010-05-18 15:26:43:950 1184 b2c Agent   * Added update {786A447D-2FCE-40FD-8320-26324F5524FF}.100 to search result
    2010-05-18 15:26:43:950 1184 b2c Agent   * Added update {C78B09E7-C78D-4172-B944-2A2C69B578E3}.100 to search result
    2010-05-18 15:26:43:950 1184 b2c Agent   * Added update {08AA9B7C-454E-4E97-BFCB-FF71DB31F52D}.100 to search result
    2010-05-18 15:26:43:950 1184 b2c Agent   * Added update {9750C40C-CB2A-4214-A7DF-7633CC39D109}.100 to search result
    2010-05-18 15:26:43:950 1184 b2c Agent   * Added update {5D044840-AD68-42F5-AE2F-484443A7A252}.100 to search result
    2010-05-18 15:26:43:950 1184 b2c Agent   * Added update {C51DDB20-A7BF-4420-B285-C88DA9798C0C}.100 to search result
    2010-05-18 15:26:43:950 1184 b2c Agent   * Added update {6C2FC5DF-B55D-4593-B885-0AF553CDDD9C}.100 to search result
    2010-05-18 15:26:43:950 1184 b2c Agent   * Added update {0755DB0A-4DDB-4541-949C-3BA985D3895A}.100 to search result
    2010-05-18 15:26:43:950 1184 b2c Agent   * Added update {79BF7A09-2C2B-4017-8304-0F16403558B0}.100 to search result
    2010-05-18 15:26:43:950 1184 b2c Agent   * Added update {9FF36D09-9505-46AF-8B21-5EBEB95AE7D4}.100 to search result
    2010-05-18 15:26:43:950 1184 b2c Agent Update {B35B57FD-033D-4DBA-9CA2-ED17D324A020}.100 is pruned out due to potential supersedence
    2010-05-18 15:26:43:950 1184 b2c Agent Update {64C3FAE5-C3F2-4F77-9D4E-7D1D5D295EA6}.101 is pruned out due to potential supersedence
    2010-05-18 15:26:43:950 1184 b2c Agent   * Added update {9C9989FD-9A87-4AA1-A4D2-77189D94A553}.100 to search result
    2010-05-18 15:26:43:950 1184 b2c Agent   * Added update {F4634EB1-ED4D-438D-8699-BEE0CAE13898}.100 to search result
    2010-05-18 15:26:43:950 1184 b2c Agent   * Added update {F918660D-9F33-47E9-99BF-A01EA612BC5A}.100 to search result
    2010-05-18 15:26:43:950 1184 b2c Agent   * Added update {2470E441-42FA-4397-B6AE-9E5498F47962}.103 to search result
    2010-05-18 15:26:43:950 1184 b2c Agent   * Added update {8382E3EE-6F64-47BE-BD4D-DB1494B55E5E}.101 to search result
    2010-05-18 15:26:43:950 1184 b2c Agent   * Added update {9D5A4078-9F2E-473F-BFBE-1380CA129468}.101 to search result
    2010-05-18 15:26:43:950 1184 b2c Agent   * Added update {C15269A7-1779-47C4-BDC1-371317E81708}.101 to search result
    2010-05-18 15:26:43:950 1184 b2c Agent   * Added update {CCD4E798-834D-42C9-928F-9A89CC0D2E14}.100 to search result
    2010-05-18 15:26:43:950 1184 b2c Agent   * Added update {7FF134C3-2D92-4A71-95C8-AFB47C6548F2}.100 to search result
    2010-05-18 15:26:43:950 1184 b2c Agent   * Added update {1E938A41-9727-4E69-9F41-3E7E393462FC}.100 to search result
    2010-05-18 15:26:43:950 1184 b2c Agent   * Added update {DEB01411-96EB-45A8-8363-DC501CC7FEC5}.100 to search result
    2010-05-18 15:26:43:950 1184 b2c Agent   * Added update {BDAF5C8D-3818-4D61-829F-39BF866DCC55}.100 to search result
    2010-05-18 15:26:43:950 1184 b2c Agent Update {32640E67-1631-4E27-A38E-A04C541FA346}.101 is pruned out due to potential supersedence
    2010-05-18 15:26:43:950 1184 b2c Agent   * Added update {94D1CE7E-B5B0-49AB-A127-BD7E684AF2D4}.100 to search result
    2010-05-18 15:26:43:950 1184 b2c Agent   * Added update {A4C493E5-FAD7-414A-9826-31C2FDB68A6E}.100 to search result
    2010-05-18 15:26:43:950 1184 b2c Agent   * Added update {36250CC1-76D3-4579-AFFD-EC2B5FD88886}.100 to search result
    2010-05-18 15:26:43:950 1184 b2c Agent   * Added update {AE8DAFF6-1ADC-4E55-A0C1-3E2E0B0C0058}.100 to search result
    2010-05-18 15:26:43:950 1184 b2c Agent   * Added update {19EBF906-DF85-4DDA-8818-E25B53AF20C0}.105 to search result
    2010-05-18 15:26:43:950 1184 b2c Agent   * Added update {9D729479-604C-4330-B0EC-EB204C0B80F3}.102 to search result
    2010-05-18 15:26:43:950 1184 b2c Agent   * Added update {070C3030-1205-4F16-ADAE-5F4D17907377}.102 to search result
    2010-05-18 15:26:43:950 1184 b2c Agent Update {E4DAA78F-4557-4C6B-A4FE-2EFAFA91AB47}.103 is pruned out due to potential supersedence
    2010-05-18 15:26:43:950 1184 b2c Agent Update {DDA60FCC-6280-458F-BE92-D400947094CC}.103 is pruned out due to potential supersedence
    2010-05-18 15:26:43:950 1184 b2c Agent Update {0F7D07A2-C659-4D2F-8DEB-2BE3192581A2}.103 is pruned out due to potential supersedence
    2010-05-18 15:26:43:950 1184 b2c Agent   * Added update {A5A6AD76-A6CA-4AC0-9AF6-BFDBE67A8021}.107 to search result
    2010-05-18 15:26:43:950 1184 b2c Agent   * Added update {6F23BC68-0656-442E-B76F-C2FA899B7565}.101 to search result
    2010-05-18 15:26:43:950 1184 b2c Agent   * Added update {F14F09A5-A2ED-4A04-AD13-733EDA1C31E7}.101 to search result
    2010-05-18 15:26:43:950 1184 b2c Agent   * Added update {7B3EEB7F-DB7F-4E4E-A762-B93E0FB18E59}.101 to search result
    2010-05-18 15:26:43:950 1184 b2c Agent   * Added update {0848AC63-CE07-4477-BC79-DAE121D6BDDA}.104 to search result
    2010-05-18 15:26:43:950 1184 b2c Agent   * Added update {6A8A9DA5-2BF7-4A7F-9823-8FDEC8C663EF}.102 to search result
    2010-05-18 15:26:43:950 1184 b2c Agent   * Added update {0C1447DC-904E-4DCE-B208-50741D1CC65C}.101 to search result
    2010-05-18 15:26:43:950 1184 b2c Agent   * Found 41 updates and 63 categories in search; evaluated appl. rules of 1289 out of 2010 deployed entities
    2010-05-18 15:26:44:044 1184 b2c Agent *********
    2010-05-18 15:26:44:044 1184 b2c Agent **  END  **  Agent: Finding updates [CallerId = AutomaticUpdates]
    2010-05-18 15:26:44:044 1184 b2c Agent *************
    2010-05-18 15:26:44:044 1184 b2c Report REPORT EVENT: {1B05719F-73A4-4457-8748-F11690BD7DD8} 2010-05-18 15:26:13:172+0200 1 182 101 {786A447D-2FCE-40FD-8320-26324F5524FF} 100 80070643 AutomaticUpdates Failure Content Install Installation Failure: Windows failed to install the following update with error 0x80070643: Aggiornamento della protezione per Excel 2007 (KB934670).
    2010-05-18 15:26:44:060 1184 1728 AU >>##  RESUMED  ## AU: Search for updates [CallId = {384FE0D6-1D79-4980-B1C7-E8B07C64070E}]
    2010-05-18 15:26:44:060 1184 1728 AU   # 41 updates detected
    2010-05-18 15:26:44:153 1184 1728 AU #########
    2010-05-18 15:26:44:153 1184 1728 AU ##  END  ##  AU: Search for updates [CallId = {384FE0D6-1D79-4980-B1C7-E8B07C64070E}]
    2010-05-18 15:26:44:153 1184 1728 AU #############
    2010-05-18 15:26:44:153 1184 1728 AU No featured updates notifications to show
    2010-05-18 15:26:44:153 1184 1728 AU Auto-approving update for download, updateId = {786A447D-2FCE-40FD-8320-26324F5524FF}.100, ForUx=0, IsOwnerUx=0, HasDeadline=0, IsMinor=0
    2010-05-18 15:26:44:153 1184 1728 AU Auto-approved 1 update(s) for download (NOT for Ux)
    2010-05-18 15:26:44:153 1184 1728 AU #############
    2010-05-18 15:26:44:153 1184 1728 AU ## START ##  AU: Download updates
    2010-05-18 15:26:44:153 1184 1728 AU #########
    2010-05-18 15:26:44:153 1184 1728 AU   # Approved updates = 1
    2010-05-18 15:26:44:184 1184 b2c Report CWERReporter::HandleEvents - WER report upload completed with status 0x8
    2010-05-18 15:26:44:184 1184 b2c Report WER Report sent: 7.4.7600.226 0x80070643 786A447D-2FCE-40FD-8320-26324F5524FF Install 101 Unmanaged
    2010-05-18 15:26:44:184 1184 b2c Report CWERReporter finishing event handling. (00000000)
    2010-05-18 15:26:44:231 1184 1728 AU AU initiated download, updateId = {786A447D-2FCE-40FD-8320-26324F5524FF}.100, callId = {04AF7618-A8BD-467E-83EE-24CB520BC22D}
    2010-05-18 15:26:44:294 1184 1728 AU   # Pending download calls = 1
    2010-05-18 15:26:44:294 1184 1728 AU <<## SUBMITTED ## AU: Download updates
    2010-05-18 15:26:44:356 1184 f70 AU Getting featured update notifications.  fIncludeDismissed = true
    2010-05-18 15:26:44:356 1184 f70 AU No featured updates available.
    2010-05-18 15:26:44:356 1184 b2c DnldMgr *************
    2010-05-18 15:26:44:356 1184 b2c DnldMgr ** START **  DnldMgr: Downloading updates [CallerId = AutomaticUpdates]
    2010-05-18 15:26:44:356 1184 b2c DnldMgr *********
    2010-05-18 15:26:44:356 1184 b2c DnldMgr   * Call ID = {04AF7618-A8BD-467E-83EE-24CB520BC22D}
    2010-05-18 15:26:44:356 1184 b2c DnldMgr   * Priority = 2, Interactive = 0, Owner is system = 1, Explicit proxy = 0, Proxy session id = -1, ServiceId = {7971F918-A847-4430-9279-4A52D1EFE18D}
    2010-05-18 15:26:44:356 1184 b2c DnldMgr   * Updates to download = 1
    2010-05-18 15:26:44:356 1184 b2c Agent   *   Title = Aggiornamento della protezione per Excel 2007 (KB934670)
    2010-05-18 15:26:44:356 1184 b2c Agent   *   UpdateId = {786A447D-2FCE-40FD-8320-26324F5524FF}.100
    2010-05-18 15:26:44:356 1184 b2c Agent   *     Bundles 1 updates:
    2010-05-18 15:26:44:356 1184 b2c Agent   *       {30310F0A-BE62-49CC-9230-77FD165D8C80}.100
    2010-05-18 15:26:44:356 1184 b2c DnldMgr ***********  DnldMgr: Regulation Refresh [Svc: {7971F918-A847-4430-9279-4A52D1EFE18D}]  ***********
    2010-05-18 15:26:44:356 1184 b2c DnldMgr Contacting regulation server for 1 updates.
    2010-05-18 15:26:44:450 1184 b2c Misc Validating signature for C:\Windows\SoftwareDistribution\WuRedir\7971F918-A847-4430-9279-4A52D1EFE18D\wuredir.cab:
    2010-05-18 15:26:44:481 1184 b2c Misc  Microsoft signed: Yes
    2010-05-18 15:26:44:481 1184 b2c PT URL for regulation server found in server config.
    2010-05-18 15:26:44:481 1184 b2c DnldMgr Regulation server path: https://www.update.microsoft.com/v6/UpdateRegulationService/UpdateRegulation.asmx.
    2010-05-18 15:26:44:481 1184 f70 AU Getting featured update notifications.  fIncludeDismissed = true
    2010-05-18 15:26:44:481 1184 f70 AU No featured updates available.
    2010-05-18 15:26:48:521 1184 b2c DnldMgr   * Regulation call complete. 0x00000000
    2010-05-18 15:26:48:521 1184 b2c DnldMgr ***********  DnldMgr: New download job [UpdateId = {30310F0A-BE62-49CC-9230-77FD165D8C80}.100]  ***********
    2010-05-18 15:26:48:521 1184 b2c DnldMgr   * Queueing update for download handler request generation.
    2010-05-18 15:26:48:521 1184 b2c DnldMgr Generating download request for update {30310F0A-BE62-49CC-9230-77FD165D8C80}.100
    2010-05-18 15:26:48:630 1184 b2c Handler MSP download: file excel.cab already exists in sandbox directory (C:\Windows\SoftwareDistribution\Download\3fb10e2ee33938ee49236de6117b67c1)
    2010-05-18 15:26:48:677 1184 b2c DnldMgr ***********  DnldMgr: New download job [UpdateId = {30310F0A-BE62-49CC-9230-77FD165D8C80}.100]  ***********
    2010-05-18 15:26:48:677 1184 b2c DnldMgr   * All files for update were already downloaded and are valid.
    2010-05-18 15:26:48:677 1184 b2c Agent *********
    2010-05-18 15:26:48:677 1184 b2c Agent **  END  **  Agent: Downloading updates [CallerId = AutomaticUpdates]
    2010-05-18 15:26:48:677 1184 b2c Agent *************
    2010-05-18 15:26:48:677 1184 1728 AU >>##  RESUMED  ## AU: Download update [UpdateId = {786A447D-2FCE-40FD-8320-26324F5524FF}, succeeded]
    2010-05-18 15:26:48:693 1184 1728 AU #########
    2010-05-18 15:26:48:693 1184 1728 AU ##  END  ##  AU: Download updates
    2010-05-18 15:26:48:693 1184 1728 AU #############
    2010-05-18 15:26:48:693 1184 f70 AU Getting featured update notifications.  fIncludeDismissed = true
    2010-05-18 15:26:48:693 1184 f70 AU No featured updates available.
    2010-05-18 15:26:53:700 1184 b2c Report REPORT EVENT: {707ADFF0-C4A5-4327-8976-A449258BECE1} 2010-05-18 15:26:48:693+0200 1 189 102 {00000000-0000-0000-0000-000000000000} 0 0 AutomaticUpdates Success Content Install Installation Ready: The following updates are downloaded and ready for installation. To install the updates, an administrator should log on to this computer and Windows will prompt with further instructions:  - Aggiornamento per Word 2007 (KB934173) - Aggiornamento per la Guida di Microsoft Office Excel 2007 (KB963678) - Aggiornamento della protezione per Excel 2007 (KB934670) - Aggiornamento per la Guida di Microsoft Office Word 2007 (KB963665) - Aggiornamento per la Guida di Microsoft Office PowerPoint 2007 (KB963669) - Aggiornamento della protezione per Microsoft Office System 2007 (KB951596) - Aggiornamento per Microsoft Office System 2007 (KB932080) - Aggiornamento della protezione per Office 2007 (KB934062) - Aggiornamento della protezione per Microsoft Office Excel 2007 (KB951546)
    2010-05-18 15:26:53:700 1184 b2c Report CWERReporter finishing event handling. (00000000)

    • Spostato Anca Popa lunedì 2 agosto 2010 09:14 chiusura del forum Windows Update (Da:Microsoft Windows Update Forum)
    martedì 18 maggio 2010 13:39

Risposte

Tutte le risposte

  • arresta il servizio "aggiornamenti automatici", rinomina la cartella c:\windows\softwaredistribution in softold, riavvia il servizio "aggiornamenti automatici".

    ciao.

     


    Edoardo Benussi - Microsoft® MVP
    Management Infrastructure - Systems Administration
    https://mvp.support.microsoft.com/Profile/Benussi
    Windows Server Italian Forum Moderator
    edo[at]mvps[dot]org
    martedì 18 maggio 2010 15:00
    Moderatore
  • Grazie per il consiglio..
    Data la mia poca pratica a riguardo, temo di aver fatto un casino..
    Ho bloccato il servizio automatico cambiando i parametri in Windows Update e poi ho cercato di ridenominare la cartella ma non me lo permette perchè mi chiede un'autorizzazione che pensavo di avere in quanto amministratore.
    Dopo molti tentativi ho desistito e ho cercato di riattivare il servizio automatico ma mi mancano le ultime due caselline di cui la penultima era spuntata e l'ultima no.
    Mi spiace disturbare per la mia inettitudine.. ma se mi puoi riconsigliare te ne sarei grato.. Grazie di nuovo e ciao..

    martedì 18 maggio 2010 20:14
  • fai start, esegui, digita

    services.msc

    e clicca OK.

    si aprirà la console di gestione dei servizi.

    cerca il servizio Aggiornamenti automatici (oppure Automatic updates se il sistema operativo è in inglese), controlla in quale stato si trova, quale tipo di avvio ha e con quale account si avvia e scrivimi qui quese tre informazioni.

     


    Edoardo Benussi - Microsoft® MVP
    Management Infrastructure - Systems Administration
    https://mvp.support.microsoft.com/Profile/Benussi
    Windows Server Italian Forum Moderator
    edo[at]mvps[dot]org
    • Contrassegnato come risposta Anca Popa lunedì 2 agosto 2010 09:13
    mercoledì 19 maggio 2010 08:14
    Moderatore